Location: Nebraska Star Party
(42.6000°N, 100.8833°W)
Time: 02:50:43
(UTC-05:00)

Amateur Radio Satellites - All Passes

Search period start: 04 September 2015 02:20
Search period end: 05 September 2015 02:20
Location: Nebraska Star Party, 42.6000°N, 100.8833°W

Satellite Date Start Highest point End Downlink Frequencies (MHz)
Time Altitude Azimuth
CUSAT 1 04 Sep 02:21:55 02:25:01 16° 303° (WNW) 02:28:24 437.405
PCSat 04 Sep 02:28:45 02:34:10 90° 274° (W) 02:39:39 145.827
SO-50 04 Sep 02:31:33 02:36:00 35° 314° (NW) 02:40:31 436.795
GONETS M04 04 Sep 02:35:21 02:42:35 32° 85° (E) 02:50:05
TISAT 1 04 Sep 02:38:07 02:41:03 18° 269° (W) 02:43:52 437.305
RS-15 04 Sep 02:44:58 02:56:31 58° 246° (WSW) 03:08:17 29.354- 29.394
ITAMSAT 1 04 Sep 02:54:54 02:56:30 12° 87° (E) 02:58:25 435.822/435.867
BUGSAT 1 04 Sep 02:55:18 02:56:59 12° 297° (WNW) 02:58:27 437.445
Gurwin Techsat 1B 04 Sep 02:56:18 02:59:26 16° 89° (E) 03:02:48 435.225
ITUPSAT 1 04 Sep 02:57:13 03:01:58 71° 258° (WSW) 03:06:45 437.325
Cosmos 2499 04 Sep 03:02:42 03:03:53 11° 73° (ENE) 03:05:50 435.465 / 435.565
STARS 04 Sep 03:15:13 03:18:16 19° 65° (ENE) 03:21:27 437.465
Oscar 19 04 Sep 03:24:48 03:30:03 89° 288° (WNW) 03:35:15 437.125/150
BEESAT 04 Sep 03:28:40 03:33:01 34° 264° (W) 03:37:20 436.000
VERMONT LUNAR 04 Sep 03:38:14 03:40:56 30° 162° (SSE) 03:43:37 437.305
JAS-2 04 Sep 03:39:39 03:44:47 23° 87° (E) 03:49:39 435.910
KKS-1 04 Sep 03:41:25 03:45:46 57° 73° (ENE) 03:50:12 437.445
SWISSCUBE 04 Sep 03:56:38 03:59:52 17° 269° (W) 04:02:55 437.505
O/OREOS (USA 219) 04 Sep 04:06:01 04:09:23 20° 53° (NE) 04:12:50 437.305
PCSat 04 Sep 04:14:44 04:18:25 18° 321° (NW) 04:21:58 145.827
MOZHAYETS 4 04 Sep 04:20:39 04:24:11 23° 67° (ENE) 04:27:49
GONETS M04 04 Sep 04:30:32 04:39:03 57° 284° (WNW) 04:47:37
ITAMSAT 1 04 Sep 04:31:34 04:36:47 85° 282° (WNW) 04:41:59 435.822/435.867
Gurwin Techsat 1B 04 Sep 04:34:42 04:39:59 66° 287° (WNW) 04:45:14 435.225
HORYU 2 04 Sep 04:45:03 04:47:47 16° 91° (E) 04:50:40 437.375
Cosmos 2499 04 Sep 04:47:01 04:55:20 59° 92° (E) 05:04:02 435.465 / 435.565
STARS 04 Sep 04:50:10 04:54:25 44° 261° (W) 04:58:41 437.465
AO-7 04 Sep 04:59:50 05:07:17 37° 96° (E) 05:14:49 29.400- 29.500
RS-15 04 Sep 05:03:14 05:06:53 11° 264° (W) 05:09:13 29.354- 29.394
Oscar 19 04 Sep 05:06:22 05:08:43 13° 301° (WNW) 05:10:49 437.125/150
VERMONT LUNAR 04 Sep 05:14:09 05:17:06 57° 178° (S) 05:20:02 437.305
KKS-1 04 Sep 05:20:22 05:22:51 14° 271° (W) 05:25:06 437.445
JAS-2 04 Sep 05:23:44 05:30:33 60° 290° (WNW) 05:36:30 435.910
PHONESAT 2.4 04 Sep 05:30:09 05:33:04 26° 158° (SSE) 05:36:00 2401.200-2431.200
O/OREOS (USA 219) 04 Sep 05:44:41 05:49:08 48° 252° (WSW) 05:53:31 437.305
MOZHAYETS 4 04 Sep 05:56:54 06:01:13 38° 263° (W) 06:05:30
ITAMSAT 1 04 Sep 06:13:28 06:15:35 12° 301° (WNW) 06:17:27 435.822/435.867
HORYU 2 04 Sep 06:20:25 06:24:44 48° 288° (WNW) 06:29:00 437.375
CUBESAT XI-V 04 Sep 06:23:51 06:28:03 37° 71° (ENE) 06:32:18 437.345
GONETS M04 04 Sep 06:35:50 06:38:30 11° 310° (NW) 06:40:32
Cubesat XI-IV 04 Sep 06:41:14 06:42:55 12° 86° (E) 06:44:57 437.490
Cosmos 2499 04 Sep 06:41:23 06:49:04 33° 293° (WNW) 06:56:49 435.465 / 435.565
VERMONT LUNAR 04 Sep 06:50:31 06:53:18 36° 195° (SSW) 06:56:04 437.305
PRISM 04 Sep 06:52:15 06:53:51 12° 63° (ENE) 06:55:38 437.425
AO-7 04 Sep 06:52:23 07:00:23 53° 296° (WNW) 07:08:17 29.400- 29.500
PHONESAT 2.4 04 Sep 07:07:17 07:10:39 57° 175° (S) 07:14:01 2401.200-2431.200
JAS-2 04 Sep 07:11:53 07:14:08 11° 310° (NW) 07:15:57 435.910
CUTE-I 04 Sep 07:22:48 07:27:23 30° 95° (E) 07:32:03 437.470
STRAND 1 04 Sep 07:42:46 07:47:48 66° 73° (ENE) 07:52:52 437.568
YUBILEINY 04 Sep 07:55:34 08:03:21 34° 68° (ENE) 08:11:13 435.215
CUBESAT XI-V 04 Sep 08:01:59 08:05:37 22° 268° (W) 08:09:11 437.345
Cubesat XI-IV 04 Sep 08:18:29 08:23:51 87° 285° (WNW) 08:29:12 437.490
BRITE-PL 04 Sep 08:24:27 08:29:02 26° 92° (E) 08:33:47 437.365/2234.400
PRISM 04 Sep 08:24:46 08:28:50 62° 259° (W) 08:32:53 437.425
VERMONT LUNAR 04 Sep 08:28:16 08:29:13 11° 210° (SSW) 08:30:06 437.305
GOMX 1 04 Sep 08:34:40 08:38:26 19° 89° (E) 08:42:22 467.674
ISS 04 Sep 08:34:48 08:37:57 48° 141° (SE) 08:41:07 145.825
PHONESAT 2.4 04 Sep 08:45:03 08:48:22 49° 191° (S) 08:51:40 2401.200-2431.200
Cosmos 2491 04 Sep 08:46:18 08:53:35 32° 85° (E) 09:01:04 435.465 / 435.565
AO-7 04 Sep 08:47:57 08:51:28 13° 317° (NW) 08:54:34 29.400- 29.500
AIST 1 04 Sep 09:01:15 09:05:29 73° 279° (W) 09:09:46
CUTE-I 04 Sep 09:02:40 09:07:32 37° 292° (WNW) 09:12:22 437.470
Cosmos 2504 04 Sep 09:13:15 09:17:01 14° 54° (NE) 09:21:11 435.465 / 435.565
CUTE 1.7 + AOD 2 04 Sep 09:20:49 09:23:26 16° 90° (E) 09:26:11 437.475
SO-50 04 Sep 09:21:41 09:26:21 39° 48° (NE) 09:30:55 436.795
STRAND 1 04 Sep 09:24:33 09:27:34 15° 271° (W) 09:30:21 437.568
CUSAT 1 04 Sep 09:30:59 09:34:32 14° 55° (NE) 09:38:41 437.405
PCSat 04 Sep 09:33:47 09:37:07 17° 38° (NE) 09:40:36 145.827
CANX-2 04 Sep 09:34:46 09:38:17 26° 94° (E) 09:41:51 2200.000
SEEDS 04 Sep 09:49:13 09:52:45 26° 94° (E) 09:56:19 437.485
HO-68 04 Sep 09:49:45 09:56:32 43° 98° (E) 10:03:21 435.675
YUBILEINY 04 Sep 09:52:05 10:00:39 56° 269° (W) 10:09:05 435.215
Cubesat XI-IV 04 Sep 10:00:48 10:03:16 13° 301° (WNW) 10:05:27 437.490
BRITE-PL 04 Sep 10:02:22 10:07:43 47° 289° (WNW) 10:13:09 437.365/2234.400
COMPASS 1 04 Sep 10:04:29 10:08:09 30° 95° (E) 10:11:50 437.405
DOVE 4 04 Sep 10:06:12 10:11:33 79° 101° (E) 10:16:48 437.250
AUBIESAT-1 04 Sep 10:06:59 10:09:36 15° 59° (ENE) 10:12:20 437.475
AAUSAT CUBESAT 2 04 Sep 10:11:13 10:14:51 30° 95° (E) 10:18:31 437.432
GOMX 1 04 Sep 10:11:34 10:16:59 61° 287° (WNW) 10:22:22 467.674
ISS 04 Sep 10:11:35 10:14:29 29° 339° (NNW) 10:17:24 145.825
M-CUBED/EXP-1 PRIME 04 Sep 10:15:11 10:18:42 21° 61° (ENE) 10:22:14 437.505
Oscar 11 04 Sep 10:16:46 10:19:22 16° 90° (E) 10:22:07 145.826/435.025
UNISAT 6 04 Sep 10:22:19 10:25:45 21° 66° (ENE) 10:29:19 437.425
PHONESAT 2.4 04 Sep 10:23:22 10:25:50 19° 206° (SSW) 10:28:17 2401.200-2431.200
CINEMA 3 04 Sep 10:23:32 10:28:25 52° 98° (E) 10:33:07 145.822/145.860
DANDE 04 Sep 10:25:34 10:31:30 24° 64° (ENE) 10:38:09 436.750
Cosmos 2491 04 Sep 10:41:32 10:50:04 56° 284° (WNW) 10:58:36 435.465 / 435.565
DUCHIFAT 1 04 Sep 10:45:51 10:47:09 11° 62° (ENE) 10:48:39 145.980
POLYITAN 1 04 Sep 10:47:25 10:49:17 13° 63° (ENE) 10:51:21 437.675
TIGRISAT 04 Sep 10:48:17 10:52:32 35° 70° (ENE) 10:56:51 435.000
POPSAT HIP 1 04 Sep 10:48:26 10:50:15 13° 63° (ENE) 10:52:17 437.405
CUTE 1.7 + AOD 2 04 Sep 10:55:35 10:59:36 43° 288° (WNW) 11:03:35 437.475
SO-50 04 Sep 11:02:30 11:06:47 29° 246° (WSW) 11:10:53 436.795
Cosmos 2504 04 Sep 11:02:54 11:11:21 67° 78° (ENE) 11:19:13 435.465 / 435.565
NANOSAT C BR1 04 Sep 11:03:09 11:05:59 18° 66° (ENE) 11:08:57 145.865
QB50P2 04 Sep 11:05:06 11:08:09 20° 66° (ENE) 11:11:19 145.880/145.840
ANTELSAT 04 Sep 11:06:41 11:11:16 56° 73° (ENE) 11:15:55 437.575/2403.000
ZACube-1 04 Sep 11:07:30 11:11:39 37° 96° (E) 11:15:43 437.345
CANX-2 04 Sep 11:10:34 11:14:11 27° 291° (WNW) 11:17:43 2200.000
CUSAT 1 04 Sep 11:10:57 11:18:49 60° 75° (ENE) 11:26:54 437.405
FUNcube-1 04 Sep 11:11:01 11:15:12 39° 97° (E) 11:19:18 145.935
PCSat 04 Sep 11:16:00 11:21:27 83° 57° (ENE) 11:26:54 145.827
QB50P1 04 Sep 11:17:47 11:21:16 26° 68° (ENE) 11:24:51 145.935-145.965
HUMSAT D 04 Sep 11:20:27 11:23:28 19° 92° (E) 11:26:34 437.325/437.525
UWE-3 04 Sep 11:23:06 11:27:41 75° 102° (ESE) 11:32:07 435.000/436.395/437.385
CUBEBUG 2 04 Sep 11:24:28 11:29:10 83° 282° (WNW) 11:33:40 437.445
SEEDS 04 Sep 11:24:57 11:28:29 26° 291° (WNW) 11:31:56 437.485
HO-68 04 Sep 11:37:38 11:44:14 39° 296° (WNW) 11:50:43 435.675
AUBIESAT-1 04 Sep 11:39:07 11:43:50 71° 253° (WSW) 11:48:26 437.475
COMPASS 1 04 Sep 11:40:22 11:43:41 23° 292° (WNW) 11:46:54 437.405
DELFI C3 04 Sep 11:42:07 11:46:08 87° 285° (WNW) 11:50:06 145.870
DOVE 4 04 Sep 11:45:32 11:48:40 15° 298° (WNW) 11:51:33 437.250
AAUSAT CUBESAT 2 04 Sep 11:47:02 11:50:20 23° 292° (WNW) 11:53:31 437.432
M-CUBED/EXP-1 PRIME 04 Sep 11:48:30 11:53:10 49° 256° (WSW) 11:57:43 437.505
ISS 04 Sep 11:49:27 11:51:39 16° 359° (N) 11:53:51 145.825
DX 1 04 Sep 11:50:51 11:54:20 23° 94° (E) 11:57:53 434.975-435.025
Oscar 11 04 Sep 11:51:42 11:55:51 46° 288° (WNW) 11:59:57 145.826/435.025
50 SAT 04 Sep 11:53:31 11:56:04 17° 92° (E) 11:58:43 437.505
UKube-1 04 Sep 11:57:04 12:00:34 24° 94° (E) 12:04:09 .
UNISAT 6 04 Sep 11:57:43 12:02:15 44° 262° (W) 12:06:46 437.425
CINEMA 3 04 Sep 12:01:35 12:05:12 20° 296° (WNW) 12:08:36 145.822/145.860
DANDE 04 Sep 12:07:34 12:15:29 85° 261° (W) 12:24:04 436.750
BUGSAT 1 04 Sep 12:08:16 12:12:14 52° 73° (ENE) 12:16:19 437.445
CUBEBUG 1 04 Sep 12:17:30 12:20:33 18° 91° (E) 12:23:43 437.445
DUCHIFAT 1 04 Sep 12:18:09 12:22:23 74° 257° (WSW) 12:26:40 145.980
POLYITAN 1 04 Sep 12:20:26 12:24:41 65° 259° (W) 12:28:59 437.675
POPSAT HIP 1 04 Sep 12:21:24 12:25:38 65° 259° (W) 12:29:55 437.405
TIGRISAT 04 Sep 12:25:26 12:29:21 25° 267° (W) 12:33:13 435.000
AISAT 04 Sep 12:28:38 12:32:52 39° 98° (E) 12:37:05 437.250
ESTCUBE 1 04 Sep 12:30:22 12:34:21 30° 96° (E) 12:38:21 437.505/2401.250
NANOSAT C BR1 04 Sep 12:37:27 12:41:31 43° 262° (W) 12:45:36 145.865
QB50P2 04 Sep 12:39:46 12:43:47 39° 262° (W) 12:47:49 145.880/145.840
ZACube-1 04 Sep 12:44:20 12:47:47 22° 293° (WNW) 12:51:05 437.345
GONETS M04 04 Sep 12:44:37 12:49:37 17° 56° (NE) 12:55:06
ANTELSAT 04 Sep 12:45:28 12:48:27 16° 271° (W) 12:51:15 437.575/2403.000
Cosmos 2491 04 Sep 12:46:59 12:49:32 11° 310° (NW) 12:51:26 435.465 / 435.565
FUNcube-1 04 Sep 12:47:55 12:51:16 21° 294° (WNW) 12:54:27 145.935
QB50P1 04 Sep 12:53:19 12:57:03 29° 265° (W) 13:00:46 145.935-145.965
CUSAT 1 04 Sep 12:54:04 13:01:04 33° 272° (W) 13:07:58 437.405
HUMSAT D 04 Sep 12:55:27 12:59:21 36° 289° (WNW) 13:03:09 437.325/437.525
VELOX 1 04 Sep 12:55:28 12:59:58 74° 102° (ESE) 13:04:26 145.980
Cosmos 2504 04 Sep 12:56:12 13:02:52 26° 278° (W) 13:08:57 435.465 / 435.565
PCSat 04 Sep 13:01:28 13:04:15 14° 255° (WSW) 13:06:44 145.827
UWE-3 04 Sep 13:01:35 13:03:36 12° 298° (WNW) 13:05:24 435.000/436.395/437.385
Oscar 19 04 Sep 13:05:02 13:08:34 19° 63° (ENE) 13:12:16 437.125/150
ISS 04 Sep 13:26:04 13:28:51 25° 19° (NNE) 13:31:39 145.825
DX 1 04 Sep 13:26:40 13:30:39 33° 290° (WNW) 13:34:34 434.975-435.025
50 SAT 04 Sep 13:27:13 13:30:44 33° 289° (WNW) 13:34:11 437.505
SPROUT 04 Sep 13:32:27 13:36:28 36° 97° (E) 13:40:29 437.525
UKube-1 04 Sep 13:32:52 13:36:45 32° 291° (WNW) 13:40:34 .
BUGSAT 1 04 Sep 13:46:05 13:48:07 13° 271° (W) 13:49:57 437.445
DANDE 04 Sep 13:52:29 13:57:56 19° 276° (W) 14:03:09 436.750
CUBEBUG 1 04 Sep 13:52:56 13:57:08 42° 288° (WNW) 14:01:19 437.445
JAS-2 04 Sep 13:53:04 13:57:22 17° 55° (NE) 14:02:00 435.910
AISAT 04 Sep 14:05:45 14:09:12 21° 294° (WNW) 14:12:32 437.250
ESTCUBE 1 04 Sep 14:07:19 14:11:08 27° 292° (WNW) 14:14:51 437.505/2401.250
ITAMSAT 1 04 Sep 14:12:37 14:16:22 21° 64° (ENE) 14:20:15 435.822/435.867
AO-7 04 Sep 14:12:56 14:16:11 13° 44° (NE) 14:19:51 29.400- 29.500
Gurwin Techsat 1B 04 Sep 14:17:40 14:22:06 29° 66° (ENE) 14:26:38 435.225
SWISSCUBE 04 Sep 14:18:37 14:20:25 12° 88° (E) 14:22:29 437.505
TISAT 1 04 Sep 14:20:02 14:24:19 68° 101° (ESE) 14:28:33 437.305
VELOX 1 04 Sep 14:34:00 14:35:58 12° 298° (WNW) 14:37:44 145.980
Cosmos 2499 04 Sep 14:38:48 14:45:06 23° 61° (ENE) 14:51:24 435.465 / 435.565
GONETS M04 04 Sep 14:39:29 14:48:20 77° 80° (E) 14:57:12
Oscar 19 04 Sep 14:42:25 14:47:31 58° 259° (W) 14:52:40 437.125/150
BEESAT 3 04 Sep 14:47:25 14:51:15 44° 118° (ESE) 14:55:10 437.485
ITUPSAT 1 04 Sep 14:57:27 15:01:31 28° 95° (E) 15:05:36 437.325
RS-15 04 Sep 15:00:48 15:08:11 23° 102° (ESE) 15:16:18 29.354- 29.394
ISS 04 Sep 15:02:16 15:05:30 63° 216° (SW) 15:08:42 145.825
BEESAT 2 04 Sep 15:05:35 15:09:32 51° 119° (ESE) 15:13:33 435.950
SPROUT 04 Sep 15:08:59 15:12:20 22° 293° (WNW) 15:15:36 437.525
BEESAT 04 Sep 15:27:32 15:32:14 57° 101° (E) 15:36:55 436.000
JAS-2 04 Sep 15:33:32 15:41:14 70° 72° (ENE) 15:49:01 435.910
KKS-1 04 Sep 15:34:44 15:35:21 10° 87° (E) 15:36:16 437.445
HORYU 2 04 Sep 15:44:06 15:47:05 18° 65° (ENE) 15:50:12 437.375
ITAMSAT 1 04 Sep 15:50:30 15:55:32 52° 260° (W) 16:00:36 435.822/435.867
SWISSCUBE 04 Sep 15:54:07 15:58:52 72° 286° (WNW) 16:03:36 437.505
Gurwin Techsat 1B 04 Sep 15:57:00 16:01:57 39° 263° (W) 16:06:54 435.225
TISAT 1 04 Sep 15:57:42 15:59:34 12° 297° (WNW) 16:01:14 437.305
AO-7 04 Sep 15:59:18 16:07:17 54° 65° (ENE) 16:15:20 29.400- 29.500
AIST 2 04 Sep 16:10:16 16:14:22 49° 119° (ESE) 16:18:30 435.215
BEESAT 3 04 Sep 16:26:10 16:29:23 21° 317° (NW) 16:32:32 437.485
Cosmos 2499 04 Sep 16:30:53 16:39:31 81° 265° (W) 16:47:29 435.465 / 435.565
ITUPSAT 1 04 Sep 16:35:09 16:39:25 32° 292° (WNW) 16:43:37 437.325
GONETS M04 04 Sep 16:37:45 16:44:22 23° 279° (W) 16:50:36
STARS 04 Sep 16:39:10 16:43:06 31° 96° (E) 16:47:04 437.465
BEESAT 2 04 Sep 16:44:48 16:47:52 20° 318° (NW) 16:50:53 435.950
BEESAT 04 Sep 17:06:31 17:09:40 17° 297° (WNW) 17:12:40 436.000
KKS-1 04 Sep 17:08:07 17:12:38 77° 284° (WNW) 17:17:07 437.445
RS-15 04 Sep 17:08:11 17:19:09 89° 117° (ESE) 17:30:37 29.354- 29.394
HORYU 2 04 Sep 17:19:01 17:23:23 48° 260° (W) 17:27:46 437.375
JAS-2 04 Sep 17:20:28 17:26:53 26° 271° (W) 17:33:06 435.910
AIST 2 04 Sep 17:49:53 17:53:12 21° 317° (NW) 17:56:27 435.215
MOZHAYETS 4 04 Sep 17:50:56 17:55:20 46° 98° (E) 17:59:43
AO-7 04 Sep 17:52:49 18:00:24 36° 264° (W) 18:07:51 29.400- 29.500
Cubesat XI-IV 04 Sep 18:02:54 18:06:56 23° 64° (ENE) 18:11:05 437.490
STARS 04 Sep 18:15:43 18:19:27 26° 292° (WNW) 18:23:05 437.465
O/OREOS (USA 219) 04 Sep 18:19:47 18:22:44 18° 101° (ESE) 18:25:52 437.305
Cosmos 2499 04 Sep 18:26:37 18:31:20 15° 284° (WNW) 18:35:22 435.465 / 435.565
CUTE-I 04 Sep 18:45:13 18:50:20 52° 71° (ENE) 18:55:31 437.470
Cosmos 2491 04 Sep 18:55:44 19:00:40 17° 56° (NE) 19:06:07 435.465 / 435.565
AIST 1 04 Sep 19:07:48 19:11:34 28° 74° (ENE) 19:15:23
RS-15 04 Sep 19:23:19 19:33:16 35° 331° (NNW) 19:43:29 29.354- 29.394
MOZHAYETS 4 04 Sep 19:29:00 19:32:15 19° 295° (WNW) 19:35:21
BRITE-PL 04 Sep 19:36:38 19:40:20 26° 66° (ENE) 19:44:23 437.365/2234.400
DOVE 4 04 Sep 19:38:48 19:39:55 11° 59° (ENE) 19:41:18 437.250
Cubesat XI-IV 04 Sep 19:41:35 19:46:44 50° 260° (W) 19:51:55 437.490
GOMX 1 04 Sep 19:43:59 19:47:15 19° 64° (ENE) 19:50:49 467.674
STRAND 1 04 Sep 19:53:21 19:57:06 21° 92° (E) 20:01:00 437.568
CUBESAT XI-V 04 Sep 19:56:29 20:01:10 85° 104° (ESE) 20:05:50 437.345
O/OREOS (USA 219) 04 Sep 19:57:26 20:01:49 47° 298° (WNW) 20:06:16 437.305
PRISM 04 Sep 20:07:09 20:09:44 16° 92° (E) 20:12:26 437.425
CUTE 1.7 + AOD 2 04 Sep 20:15:03 20:17:17 14° 65° (ENE) 20:19:41 437.475
HO-68 04 Sep 20:19:18 20:25:36 36° 63° (ENE) 20:32:02 435.675
CUTE-I 04 Sep 20:26:48 20:30:47 21° 269° (W) 20:34:37 437.470
CANX-2 04 Sep 20:28:38 20:31:53 22° 68° (ENE) 20:35:13 2200.000
SEEDS 04 Sep 20:42:11 20:45:23 22° 68° (ENE) 20:48:41 437.485
AIST 1 04 Sep 20:45:34 20:49:09 24° 270° (W) 20:52:38
CUBEBUG 2 04 Sep 20:50:08 20:51:20 11° 61° (ENE) 20:52:48 437.445
Cosmos 2491 04 Sep 20:50:36 20:59:24 77° 80° (E) 21:08:12 435.465 / 435.565
COMPASS 1 04 Sep 20:56:31 20:59:51 24° 69° (ENE) 21:03:16 437.405
YUBILEINY 04 Sep 20:57:38 21:05:21 38° 86° (E) 21:13:17 435.215
AAUSAT CUBESAT 2 04 Sep 21:02:48 21:06:06 24° 68° (ENE) 21:09:28 437.432
DOVE 4 04 Sep 21:12:06 21:16:49 82° 75° (ENE) 21:21:52 437.250
Oscar 11 04 Sep 21:12:50 21:15:13 15° 65° (ENE) 21:17:46 145.826/435.025
BRITE-PL 04 Sep 21:14:39 21:18:44 34° 266° (W) 21:23:07 437.365/2234.400
GOMX 1 04 Sep 21:20:27 21:24:57 51° 262° (W) 21:29:49 467.674
CINEMA 3 04 Sep 21:25:23 21:30:00 51° 72° (ENE) 21:34:50 145.822/145.860
STRAND 1 04 Sep 21:31:41 21:36:36 48° 289° (WNW) 21:41:30 437.568
CUBESAT XI-V 04 Sep 21:36:21 21:38:00 11° 298° (WNW) 21:39:22 437.345
PRISM 04 Sep 21:41:29 21:45:23 41° 289° (WNW) 21:49:16 437.425
RS-15 04 Sep 21:41:38 21:50:22 24° 4° (N) 21:59:27 29.354- 29.394
CUTE 1.7 + AOD 2 04 Sep 21:48:34 21:52:47 56° 260° (W) 21:57:01 437.475
CANX-2 04 Sep 22:03:41 22:07:38 34° 264° (W) 22:11:32 2200.000
ZACube-1 04 Sep 22:03:47 22:07:53 34° 70° (ENE) 22:12:03 437.345
HO-68 04 Sep 22:06:18 22:13:11 48° 261° (W) 22:20:05 435.675
FUNcube-1 04 Sep 22:07:02 22:11:10 35° 70° (ENE) 22:15:22 145.935
HUMSAT D 04 Sep 22:13:12 22:15:55 17° 66° (ENE) 22:18:47 437.325/437.525
SEEDS 04 Sep 22:17:07 22:21:00 34° 264° (W) 22:24:52 437.485
UWE-3 04 Sep 22:20:13 22:24:49 66° 75° (ENE) 22:29:29 435.000/436.395/437.385
CUBEBUG 2 04 Sep 22:22:37 22:27:19 88° 76° (ENE) 22:32:07 437.445
DELFI C3 04 Sep 22:29:25 22:33:24 60° 75° (ENE) 22:37:24 145.870
COMPASS 1 04 Sep 22:31:40 22:35:24 30° 265° (W) 22:39:06 437.405
AAUSAT CUBESAT 2 04 Sep 22:37:52 22:41:35 30° 265° (W) 22:45:15 437.432
50 SAT 04 Sep 22:38:46 22:40:18 12° 64° (ENE) 22:41:59 437.505
Oscar 11 04 Sep 22:46:43 22:50:59 56° 260° (W) 22:55:17 145.826/435.025
DX 1 04 Sep 22:47:21 22:50:42 23° 67° (ENE) 22:54:10 434.975-435.025
Cosmos 2491 04 Sep 22:48:56 22:55:27 23° 279° (W) 23:01:36 435.465 / 435.565
UKube-1 04 Sep 22:52:44 22:56:07 23° 67° (ENE) 22:59:35 .
YUBILEINY 04 Sep 22:53:30 23:02:01 50° 286° (WNW) 23:10:31 435.215
DOVE 4 04 Sep 22:53:56 22:55:25 11° 276° (W) 22:56:37 437.250
ANTELSAT 04 Sep 23:00:53 23:01:47 11° 86° (E) 23:02:57 437.575/2403.000
CINEMA 3 04 Sep 23:04:08 23:07:33 19° 271° (W) 23:10:55 145.822/145.860
BEESAT 3 04 Sep 23:05:06 23:08:49 34° 49° (NE) 23:12:29 437.485
CUBEBUG 1 04 Sep 23:14:50 23:17:38 18° 65° (ENE) 23:20:35 437.445
BEESAT 2 04 Sep 23:23:54 23:27:45 39° 50° (NE) 23:31:33 435.950
AISAT 04 Sep 23:26:58 23:31:03 38° 70° (ENE) 23:35:12 437.250
ESTCUBE 1 04 Sep 23:30:44 23:34:39 31° 69° (ENE) 23:38:38 437.505/2401.250
Cosmos 2504 04 Sep 23:32:49 23:40:39 50° 89° (E) 23:48:53 435.465 / 435.565
ZACube-1 04 Sep 23:40:28 23:44:17 25° 267° (W) 23:48:03 437.345
FUNcube-1 04 Sep 23:43:49 23:47:33 24° 267° (W) 23:51:14 145.935
HUMSAT D 04 Sep 23:47:07 23:51:18 48° 261° (W) 23:55:31 437.325/437.525
UNISAT 6 04 Sep 23:49:09 23:53:20 36° 96° (E) 23:57:26 437.425
VELOX 1 04 Sep 23:53:28 23:57:51 71° 75° (ENE) 00:02:17 145.980
RS-15 04 Sep 23:56:11 00:07:04 42° 37° (NE) 00:18:28 29.354- 29.394
UWE-3 04 Sep 23:59:29 00:01:52 13° 273° (W) 00:04:01 435.000/436.395/437.385
DUCHIFAT 1 05 Sep 00:03:07 00:05:52 17° 91° (E) 00:08:45 145.980
POLYITAN 1 05 Sep 00:05:53 00:08:58 20° 92° (E) 00:12:09 437.675
POPSAT HIP 1 05 Sep 00:06:36 00:09:41 19° 92° (E) 00:12:52 437.405
DELFI C3 05 Sep 00:07:42 00:08:55 11° 272° (W) 00:09:54 145.870
50 SAT 05 Sep 00:10:28 00:14:23 58° 260° (W) 00:18:17 437.505
TIGRISAT 05 Sep 00:15:36 00:20:08 67° 101° (E) 00:24:31 435.000
CUSAT 1 05 Sep 00:18:47 00:22:56 47° 91° (E) 00:28:28 437.405
NANOSAT C BR1 05 Sep 00:21:40 00:25:21 28° 95° (E) 00:29:03 145.865
DX 1 05 Sep 00:22:49 00:26:47 34° 263° (W) 00:30:45 434.975-435.025
QB50P2 05 Sep 00:24:16 00:28:05 31° 96° (E) 00:31:55 145.880/145.840
SPROUT 05 Sep 00:27:16 00:31:03 31° 70° (ENE) 00:34:53 437.525
UKube-1 05 Sep 00:28:10 00:32:05 33° 263° (W) 00:36:00 .
AIST 2 05 Sep 00:31:18 00:35:16 40° 50° (NE) 00:39:11 435.215
ANTELSAT 05 Sep 00:34:41 00:39:14 74° 284° (WNW) 00:43:37 437.575/2403.000
QB50P1 05 Sep 00:37:03 00:41:08 41° 98° (E) 00:45:12 145.935-145.965
BEESAT 3 05 Sep 00:43:19 00:46:34 23° 246° (WSW) 00:49:42 437.485
CUBEBUG 1 05 Sep 00:49:30 00:53:40 46° 261° (W) 00:57:52 437.445
AUBIESAT-1 05 Sep 00:54:10 00:58:00 81° 106° (ESE) 01:01:31 437.475
BEESAT 2 05 Sep 01:02:31 01:05:33 20° 247° (WSW) 01:08:27 435.950
M-CUBED/EXP-1 PRIME 05 Sep 01:04:08 01:07:58 62° 291° (WNW) 01:11:29 437.505
AISAT 05 Sep 01:04:27 01:07:48 20° 268° (W) 01:11:03 437.250
ESTCUBE 1 05 Sep 01:07:46 01:11:33 26° 266° (W) 01:15:16 437.505/2401.250
TISAT 1 05 Sep 01:12:31 01:16:37 54° 73° (ENE) 01:20:48 437.305
SO-50 05 Sep 01:16:20 01:21:08 80° 122° (ESE) 01:26:05 436.795
DANDE 05 Sep 01:20:41 01:24:33 68° 283° (WNW) 01:29:50 436.750
BUGSAT 1 05 Sep 01:24:44 01:29:02 85° 105° (ESE) 01:33:18 437.445
Cosmos 2504 05 Sep 01:25:30 01:33:09 38° 290° (WNW) 01:40:57 435.465 / 435.565
SWISSCUBE 05 Sep 01:25:35 01:28:33 17° 63° (ENE) 01:31:39 437.505
UNISAT 6 05 Sep 01:26:19 01:29:55 23° 294° (WNW) 01:33:21 437.425
VELOX 1 05 Sep 01:33:42 01:34:59 11° 273° (W) 01:36:01 145.980
DUCHIFAT 1 05 Sep 01:37:50 01:41:55 43° 288° (WNW) 01:45:57 145.980
POLYITAN 1 05 Sep 01:41:01 01:45:02 38° 289° (WNW) 01:48:59 437.675
POPSAT HIP 1 05 Sep 01:41:42 01:45:43 38° 289° (WNW) 01:49:41 437.405
GONETS M04 05 Sep 01:49:09 01:53:53 17° 78° (ENE) 01:59:10
TIGRISAT 05 Sep 01:54:01 01:56:21 14° 298° (WNW) 01:58:26 435.000
NANOSAT C BR1 05 Sep 01:57:28 02:01:07 27° 291° (WNW) 02:04:41 145.865
PCSat 05 Sep 01:58:05 02:03:26 67° 117° (ESE) 02:08:51 145.827
QB50P2 05 Sep 02:00:20 02:03:51 24° 292° (WNW) 02:07:16 145.880/145.840
CUSAT 1 05 Sep 02:02:29 02:06:06 21° 300° (WNW) 02:10:20 437.405
SPROUT 05 Sep 02:03:36 02:07:09 24° 266° (W) 02:10:39 437.525
ITUPSAT 1 05 Sep 02:04:53 02:09:11 35° 69° (ENE) 02:13:32 437.325
AIST 2 05 Sep 02:10:26 02:13:36 20° 247° (WSW) 02:16:37 435.215
QB50P1 05 Sep 02:13:39 02:16:43 19° 294° (WNW) 02:19:40 145.935-145.965
